This demonstration page uses our WeatherBlox Daily Observations layout. Learn more.

Hourly Observations for November 25, 2019

Temp ( °F °C ) Dew Point ( °F °C ) Humidity (%) Winds ( mph kmh ) Pressure ( in mb ) Visibility ( mi km ) Precip ( " mm )
12:15 am 00:15 Clear 44 6.5 28 -2.5 53 53 W 10 17 29.65 1004 10 16.0934 0 0
12:35 am 00:35 Clear 45 7 28 -2.2 52 52 W 9 15 29.65 1004 10 16.0934 0 0
12:55 am 00:55 Clear 44 6.9 28 -2.3 52 52 W 10 17 29.65 1004 10 16.0934 0 0
1:15 am 01:15 Clear 45 7.2 27 -2.6 50 50 W 9 15 29.65 1004 10 16.0934 0 0
1:35 am 01:35 Clear 45 7.2 28 -2.4 51 51 W 10 17 29.65 1004 10 16.0934 0 0
1:55 am 01:55 Clear 45 7.2 28 -2.1 52 52 WNW 10 17 29.65 1004 10 16.0934 0 0
2:15 am 02:15 Clear 43 5.9 28 -2.1 57 57 W 7 11 29.65 1004 10 16.0934 0 0
2:35 am 02:35 Clear 41 5 28 -2.1 60 60 W 12 19 29.71 1006 10 16.0934 0 0
2:55 am 02:55 Clear 41 4.8 28 -2.2 61 61 WNW 9 15 29.71 1006 10 16.0934 0 0
3:15 am 03:15 Clear 38 3.1 28 -2.5 67 67 NW 9 15 29.71 1006 10 16.0934 0 0
3:35 am 03:35 Clear 41 5.1 28 -2 60 60 NW 9 15 29.71 1006 10 16.0934 0 0
3:55 am 03:55 Clear 38 3.6 28 -2 67 67 NW 9 15 29.71 1006 10 16.0934 0 0
4:15 am 04:15 Clear 38 3.2 29 -1.6 71 71 NW 9 15 29.74 1007 10 16.0934 0 0
4:35 am 04:35 Clear 39 3.7 30 -1.2 71 71 NW 10 17 29.74 1007 10 16.0934 0 0
4:55 am 04:55 Clear 40 4.6 31 -0.7 69 69 NW 10 17 29.74 1007 10 16.0934 0 0
5:15 am 05:15 Clear 40 4.2 31 -0.6 71 71 NNW 9 15 29.74 1007 10 16.0934 0 0
5:35 am 05:35 Clear 38 3.5 31 -0.8 74 74 NNW 7 11 29.74 1007 10 16.0934 0 0
5:55 am 05:55 Clear 38 3.5 31 -0.6 75 75 NNW 9 15 29.77 1008 10 16.0934 0 0
6:15 am 06:15 Clear 38 3.5 31 -0.6 75 75 NNW 12 19 29.77 1008 10 16.0934 0 0
6:35 am 06:35 Clear 38 3.3 31 -0.7 75 75 NNW 9 15 29.8 1009 10 16.0934 0 0
6:55 am 06:55 Clear 37 2.7 30 -1 77 77 NNW 10 17 29.83 1010 10 16.0934 0 0
7:15 am 07:15 Clear 37 2.5 30 -1.1 77 77 NNW 10 17 29.83 1010 10 16.0934 0 0
7:35 am 07:35 Sunny 36 2 30 -1.2 80 80 NNW 9 15 29.83 1010 10 16.0934 0 0
7:55 am 07:55 Sunny 36 2 30 -1.1 80 80 NNW 8 13 29.85 1011 10 16.0934 0 0
8:15 am 08:15 Sunny 36 2 30 -1.1 80 80 NNW 8 13 29.85 1011 10 16.0934 0 0
8:35 am 08:35 Sunny 36 2 30 -1.2 80 80 NNW 7 11 29.85 1011 10 16.0934 0 0
8:55 am 08:55 Sunny 37 2.9 31 -0.6 78 78 NNW 8 13 29.85 1011 10 16.0934 0 0
9:15 am 09:15 Sunny 39 4.1 31 -0.3 73 73 NNW 6 9 29.83 1010 10 16.0934 0 0
9:35 am 09:35 Sunny 42 5.6 32 -0.2 67 67 NNW 10 17 29.83 1010 10 16.0934 0 0
9:55 am 09:55 Sunny 44 6.9 31 -0.5 60 60 N 12 19 29.83 1010 10 16.0934 0 0
10:15 am 10:15 Sunny 46 7.8 31 -0.7 55 55 N 15 24 29.8 1009 10 16.0934 0 0
10:35 am 10:35 Sunny 47 8.1 29 -1.5 51 51 N 16 26 29.8 1009 10 16.0934 0 0
10:55 am 10:55 Sunny 47 8.5 29 -1.4 50 50 N 13 20 29.8 1009 10 16.0934 0 0
11:15 am 11:15 Sunny 47 8.1 29 -1.7 50 50 N 13 20 29.8 1009 10 16.0934 0 0
11:35 am 11:35 Sunny 49 9.2 29 -1.8 46 46 N 13 20 29.8 1009 10 16.0934 0 0
11:55 am 11:55 Sunny 50 10 26 -3.2 40 40 N 13 20 29.77 1008 10 16.0934 0 0
12:15 pm 12:15 Sunny 51 10.5 25 -3.7 37 37 N 15 24 29.74 1007 10 16.0934 0 0
12:35 pm 12:35 Sunny 51 10.5 25 -4.1 36 36 N 13 20 29.74 1007 10 16.0934 0 0
12:55 pm 12:55 Sunny 52 11 24 -4.7 33 33 N 15 24 29.74 1007 10 16.0934 0 0
1:15 pm 13:15 Sunny 53 11.5 23 -5 31 31 N 12 19 29.71 1006 10 16.0934 0 0
1:35 pm 13:35 Sunny 53 11.5 23 -5.2 31 31 N 13 20 29.71 1006 10 16.0934 0 0
1:55 pm 13:55 Sunny 51 10.8 22 -5.6 31 31 N 10 17 29.71 1006 10 16.0934 0 0
2:15 pm 14:15 Sunny 53 11.5 23 -5.1 31 31 N 10 17 29.71 1006 10 16.0934 0 0
2:35 pm 14:35 Sunny 52 11.3 23 -5.2 31 31 N 13 20 29.71 1006 10 16.0934 0 0
2:55 pm 14:55 Sunny 53 11.4 22 -5.4 31 31 N 8 13 29.68 1005 10 16.0934 0 0
3:15 pm 15:15 Sunny 52 11.2 22 -5.5 31 31 N 13 20 29.68 1005 10 16.0934 0 0
3:35 pm 15:35 Sunny 52 10.9 20 -6.4 29 29 NNE 9 15 29.68 1005 10 16.0934 0 0
3:55 pm 15:55 Sunny 51 10.7 21 -6.1 30 30 N 9 15 29.71 1006 10 16.0934 0 0
4:15 pm 16:15 Sunny 50 10.2 22 -5.5 33 33 NNE 6 9 29.71 1006 10 16.0934 0 0
4:35 pm 16:35 Sunny 47 8.5 23 -4.9 39 39 NE 5 7 29.74 1007 10 16.0934 0 0
4:55 pm 16:55 Sunny 44 6.8 23 -5.1 43 43 ENE 6 9 29.74 1007 10 16.0934 0 0
5:15 pm 17:15 Clear 42 5.8 25 -4 50 50 ENE 7 11 29.77 1008 10 16.0934 0 0
5:35 pm 17:35 Clear 41 5.1 25 -3.8 53 53 ENE 5 7 29.77 1008 10 16.0934 0 0
5:55 pm 17:55 Clear 40 4.5 25 -3.7 56 56 NE 5 7 29.8 1009 10 16.0934 0 0
6:15 pm 18:15 Clear 39 4.1 26 -3.2 59 59 ENE 9 15 29.8 1009 10 16.0934 0 0
6:35 pm 18:35 Clear 42 5.6 27 -3 54 54 NE 10 17 29.8 1009 10 16.0934 0 0
6:55 pm 18:55 Clear 42 5.4 27 -2.7 56 56 NE 9 15 29.77 1008 10 16.0934 0 0
7:15 pm 19:15 Clear 41 4.9 27 -3 57 57 NE 9 15 29.77 1008 10 16.0934 0 0
7:35 pm 19:35 Clear 38 3.3 27 -2.7 65 65 ENE 8 13 29.8 1009 10 16.0934 0 0
7:55 pm 19:55 Clear 39 3.8 27 -2.8 62 62 NE 12 19 29.77 1008 10 16.0934 0 0
8:15 pm 20:15 Clear 39 4.1 27 -2.7 62 62 NE 8 13 29.8 1009 10 16.0934 0 0
8:35 pm 20:35 Partly Cloudy 40 4.2 27 -2.9 60 60 NE 12 19 29.77 1008 10 16.0934 0 0
8:55 pm 20:55 Clear 38 3.6 27 -3 62 62 NE 7 11 29.8 1009 10 16.0934 0 0
9:15 pm 21:15 Clear 38 3.3 27 -2.8 65 65 NE 9 15 29.83 1010 10 16.0934 0 0
9:35 pm 21:35 Clear 38 3.1 27 -2.7 66 66 NE 8 13 29.8 1009 10 16.0934 0 0
9:55 pm 21:55 Clear 37 2.6 27 -2.6 69 69 ENE 9 15 29.83 1010 10 16.0934 0 0
10:15 pm 22:15 Clear 36 2.2 27 -2.7 70 70 ENE 7 11 29.83 1010 10 16.0934 0 0
10:35 pm 22:35 Clear 35 1.4 27 -3 73 73 ENE 7 11 29.83 1010 10 16.0934 0 0
10:55 pm 22:55 Clear 33 0.4 26 -3.2 77 77 ENE 8 13 29.85 1011 10 16.0934 0 0
11:15 pm 23:15 Clear 33 0.6 27 -3 77 77 ENE 7 11 29.83 1010 10 16.0934 0 0
11:35 pm 23:35 Clear 31 -0.7 26 -3.6 81 81 ENE 7 11 29.85 1011 10 16.0934 0 0
11:55 pm 23:55 Clear 30 -1.2 25 -3.9 82 82 ENE 8 13 29.85 1011 10 16.0934 0 0

Powered by AerisWeather